Scottsbluff, NE

1:05 PM MST on November 14, 2019 (GMT -0700)
Heilig

Weather History for KBFF - September, 2019

Change the Weather History Date:

Friday, September 20, 2019

  Actual Average Record
Temperature  
Mean Temperature 75 °F -  
Max Temperature 91 °F 73 °F 95 °F (1956)
Min Temperature 59 °F 43 °F 26 °F (1983)
Cooling Degree Days 10    
Growing Degree Days 25 (Base 50)    
Moisture  
Dew Point 53 °F    
Average Humidity 57    
Maximum Humidity 83    
Minimum Humidity 20    
Precipitation  
Precipitation 0.00 in - - ()
Sea Level Pressure  
Sea Level Pressure 29.65 in    
Wind  
Wind Speed 12 mph (ESE)    
Max Wind Speed 26 mph    
Max Gust Speed 37 mph    
Visibility 10 miles    
Events Thunderstorm    
Averages and records for this station are not official NWS values.
T = Trace of Precipitation, MM = Missing Value Source: NWS Daily Summary

Daily Weather History Graph

Daily Weather History Graph

Search for Another Location

Airport or City:

Astronomy

Sep. 20, 2019 Rise Set
Actual Time 6:39 AM MDT 6:55 PM MDT
Civil Twilight 6:11 AM MDT 7:23 PM MDT
Nautical Twilight 5:38 AM MDT 7:55 PM MDT
Astronomical Twilight 5:05 AM MDT 8:29 PM MDT
Moon 10:41 PM MDT (9/20) 12:52 PM MDT (9/20)
Length of Visible Light 13h 11m
Length of Day
12h 15m
Waning Gibbous, 64% of the Moon is Illuminated
Sep 20
Waning Gibbous
Sep 21
Last Quarter
Sep 28
New
Oct 5
First Quarter
Oct 13
Full

Hourly Weather History & Observations

Time (MDT) Temp. Heat Index Dew Point Humidity Pressure Visibility Wind Dir Wind Speed Gust Speed Precip Events Conditions
12:53 AM 68.0 °F - 57.0 °F 68% 29.74 in 10.0 mi North - - 0.00 in   Partly Cloudy
1:53 AM 64.9 °F - 57.0 °F 75% 29.73 in 10.0 mi ESE 9.2 mph - N/A   Clear
2:53 AM 69.1 °F - 54.0 °F 58% 29.69 in 10.0 mi SE 15.0 mph - N/A   Clear
3:53 AM 68.0 °F - 55.0 °F 63% 29.66 in 10.0 mi SSE 16.1 mph - N/A   Clear
4:53 AM 64.9 °F - 55.9 °F 73% 29.67 in 10.0 mi SE 9.2 mph - N/A   Clear
5:53 AM 64.0 °F - 55.9 °F 75% 29.68 in 10.0 mi East 6.9 mph - N/A   Clear
6:53 AM 63.0 °F - 55.9 °F 78% 29.70 in 10.0 mi ESE 6.9 mph - N/A   Clear
7:53 AM 61.0 °F - 55.9 °F 83% 29.71 in 10.0 mi SE 9.2 mph - N/A   Clear
8:53 AM 64.9 °F - 57.0 °F 75% 29.70 in 10.0 mi SE 11.5 mph - N/A   Clear
9:53 AM 71.1 °F - 57.9 °F 63% 29.66 in 10.0 mi ESE 10.4 mph - N/A   Clear
10:53 AM 75.9 °F - 57.0 °F 52% 29.64 in 10.0 mi SSE 11.5 mph - N/A   Clear
11:53 AM 79.0 °F - 57.9 °F 48% 29.62 in 10.0 mi SSE 11.5 mph - N/A   Clear
12:53 PM 82.9 °F 82.4 °F 57.0 °F 41% 29.59 in 10.0 mi South 9.2 mph - N/A   Clear
1:53 PM 84.9 °F 83.7 °F 55.9 °F 37% 29.58 in 10.0 mi Variable 4.6 mph - N/A   Clear
2:53 PM 88.0 °F - 42.1 °F 20% 29.54 in 10.0 mi East 5.8 mph - N/A   Clear
3:53 PM 89.1 °F - 46.9 °F 23% 29.51 in 10.0 mi Variable 5.8 mph - N/A   Partly Cloudy
4:36 PM 82.9 °F 82.4 °F 57.0 °F 41% 29.66 in 10.0 mi ESE 21.9 mph 28.8 mph N/A Thunderstorm Scattered Clouds
4:53 PM 82.0 °F 81.7 °F 57.0 °F 42% 29.52 in 10.0 mi ESE 20.7 mph - N/A Thunderstorm Partly Cloudy
5:53 PM 66.9 °F - 52.0 °F 59% 29.58 in 10.0 mi North 25.3 mph 36.8 mph N/A Thunderstorm Mostly Cloudy
6:02 PM 64.0 °F - 54.0 °F 70% 29.70 in 10.0 mi North 26.5 mph 34.5 mph N/A   Scattered Clouds
6:53 PM 66.0 °F - 48.0 °F 52% 29.58 in 10.0 mi NNE 20.7 mph - N/A   Clear
7:53 PM 66.0 °F - 48.0 °F 52% 29.60 in 10.0 mi NE 11.5 mph - N/A   Clear
9:09 PM 66.0 °F - 48.9 °F 54% 29.77 in 10.0 mi West 12.7 mph - N/A Thunderstorm Thunderstorm
9:30 PM 64.9 °F - 50.0 °F 58% 29.76 in 10.0 mi NNW 6.9 mph - 0.00 in Thunderstorm Mostly Cloudy
9:53 PM 62.1 °F - 50.0 °F 65% 29.64 in 10.0 mi NW 10.4 mph - 0.00 in   Clear
10:53 PM 64.0 °F - 46.9 °F 54% 29.67 in 10.0 mi WNW 9.2 mph - N/A   Clear
11:53 PM 59.0 °F - 48.9 °F 69% 29.70 in 10.0 mi WNW 6.9 mph - N/A   Clear